TimeEST,TemperatureF,Dew PointF,Humidity,Sea Level PressureIn,VisibilityMPH,Wind Direction,Wind SpeedMPH,Gust SpeedMPH,PrecipitationIn,Events,Conditions,WindDirDegrees,DateUTC
12:56 AM,26.1,16.0,66,30.26,10.0,North,11.5,-,N/A,,Clear,360,2013-02-22 05:56:00
1:56 AM,26.1,16.0,66,30.25,10.0,North,17.3,24.2,N/A,,Clear,360,2013-02-22 06:56:00
2:56 AM,27.0,17.1,66,30.26,10.0,North,10.4,-,N/A,,Clear,360,2013-02-22 07:56:00
3:56 AM,27.0,17.1,66,30.32,10.0,NNW,10.4,-,N/A,,Clear,340,2013-02-22 08:56:00
4:56 AM,27.0,17.1,66,30.33,10.0,North,6.9,-,N/A,,Clear,360,2013-02-22 09:56:00
5:56 AM,27.0,17.1,66,30.34,10.0,North,5.8,-,N/A,,Clear,360,2013-02-22 10:56:00
6:56 AM,27.0,18.0,69,30.37,10.0,North,8.1,-,N/A,,Clear,360,2013-02-22 11:56:00
7:56 AM,28.9,19.9,69,30.39,10.0,North,8.1,-,N/A,,Clear,360,2013-02-22 12:56:00
8:56 AM,30.9,21.0,67,30.39,10.0,North,4.6,-,N/A,,Clear,360,2013-02-22 13:56:00
9:56 AM,33.1,21.0,61,30.38,10.0,North,6.9,-,N/A,,Clear,10,2013-02-22 14:56:00
10:56 AM,37.0,21.0,52,30.38,10.0,Variable,5.8,-,N/A,,Clear,0,2013-02-22 15:56:00
11:56 AM,37.9,21.9,53,30.37,10.0,Variable,5.8,-,N/A,,Clear,0,2013-02-22 16:56:00
12:56 PM,37.9,21.9,53,30.36,10.0,Calm,Calm,-,N/A,,Clear,0,2013-02-22 17:56:00
1:57 PM,37.9,23.0,55,30.33,-9999.0,Variable,3.5,-,N/A,,Unknown,0,2013-02-22 18:57:00
2:56 PM,37.9,24.1,57,30.34,10.0,Calm,Calm,-,N/A,,Clear,0,2013-02-22 19:56:00
3:56 PM,37.0,25.0,62,30.34,10.0,SE,6.9,-,N/A,,Clear,140,2013-02-22 20:56:00
4:56 PM,36.0,25.0,64,30.34,10.0,ESE,5.8,-,N/A,,Partly Cloudy,120,2013-02-22 21:56:00
5:56 PM,35.1,25.0,67,30.35,10.0,Calm,Calm,-,N/A,,Partly Cloudy,0,2013-02-22 22:56:00
6:56 PM,35.1,25.0,67,30.36,10.0,Calm,Calm,-,N/A,,Overcast,0,2013-02-22 23:56:00
7:56 PM,36.0,27.0,70,30.34,10.0,Calm,Calm,-,N/A,,Overcast,0,2013-02-23 00:56:00
8:56 PM,36.0,27.0,70,30.34,10.0,Calm,Calm,-,N/A,,Overcast,0,2013-02-23 01:56:00
9:56 PM,35.1,27.0,72,30.33,10.0,Calm,Calm,-,N/A,,Overcast,0,2013-02-23 02:56:00
10:56 PM,36.0,28.0,73,30.31,10.0,Calm,Calm,-,N/A,,Overcast,0,2013-02-23 03:56:00
11:56 PM,37.0,28.0,70,30.30,10.0,Variable,3.5,-,N/A,,Overcast,0,2013-02-23 04:56:00